When you browse on this site, cookies collect data to enhance your experience and personalize the content and advertising you see.
Visit our Privacy Policy to learn more. By continuing to use the site, you agree to this use of cookies and data.
  • In Lithuania
  • List of Countries
  • For 7 days
  • Water Temperature
  • Satellite Maps
  • Weather Map
  • Weather Widgets
  • user-avatar
    Login

    Hourly Weather Usman

    Today, 13 December, Thursday

    Time Temperature Precipitation Wind Pressure Humidity
    00:00 +3°C° 0 mm 2 mps 759 mmHg 84%
    01:00 +3°C° 0 mm 2 mps 759 mmHg 85%
    02:00 +3°C° 0 mm 2 mps 760 mmHg 85%
    03:00 +3°C° 0 mm 2 mps 760 mmHg 86%
    04:00 +2°C° 0 mm 2 mps 760 mmHg 87%
    05:00 +2°C° 0 mm 2 mps 760 mmHg 87%
    06:00 +1°C° 0 mm 3 mps 761 mmHg 88%
    07:00 +1°C° 0 mm 3 mps 761 mmHg 88%
    08:00 +2°C° 0 mm 2 mps 761 mmHg 87%
    09:00 +2°C° 0 mm 2 mps 762 mmHg 86%
    10:00 +1°C° 0 mm 3 mps 762 mmHg 81%
    11:00 +1°C° 0 mm 4 mps 763 mmHg 76%
    12:00 +3°C° 0 mm 4 mps 763 mmHg 71%
    13:00 +3°C° 0 mm 4 mps 763 mmHg 70%
    14:00 +3°C° 0 mm 3 mps 763 mmHg 69%
    15:00 +3°C° 0 mm 3 mps 764 mmHg 68%
    16:00 +3°C° 0 mm 3 mps 764 mmHg 71%
    17:00 +3°C° 0 mm 2 mps 764 mmHg 74%
    18:00 +2°C° 0 mm 2 mps 765 mmHg 77%
    19:00 +2°C° 0 mm 2 mps 765 mmHg 79%
    20:00 +2°C° 0 mm 2 mps 765 mmHg 80%
    21:00 +2°C° 0 mm 2 mps 765 mmHg 81%
    22:00 +1°C° 0 mm 2 mps 766 mmHg 82%
    23:00 +1°C° 0 mm 2 mps 766 mmHg 83%

    Tomorrow, 14 December, Friday

    Time Temperature Precipitation Wind Pressure Humidity
    00:00 +2°C° 0 mm 1 mps 766 mmHg 84%
    01:00 +2°C° 0 mm 1 mps 766 mmHg 84%
    02:00 +2°C° 0 mm 1 mps 766 mmHg 84%
    03:00 +2°C° 0 mm 1 mps 766 mmHg 84%
    04:00 +2°C° 0 mm 1 mps 766 mmHg 84%
    05:00 +2°C° 0 mm 1 mps 766 mmHg 83%
    06:00 +1°C° 0 mm 2 mps 766 mmHg 83%
    07:00 +1°C° 0 mm 2 mps 766 mmHg 84%
    08:00 +1°C° 0 mm 2 mps 766 mmHg 85%
    09:00 +1°C° 0 mm 2 mps 767 mmHg 85%
    10:00 +2°C° 0 mm 2 mps 766 mmHg 82%
    11:00 +3°C° 0 mm 2 mps 766 mmHg 79%
    12:00 +4°C° 0 mm 2 mps 766 mmHg 76%
    13:00 +5°C° 0 mm 1 mps 767 mmHg 76%
    14:00 +6°C° 0 mm 1 mps 767 mmHg 76%
    15:00 +6°C° 0 mm 1 mps 767 mmHg 77%
    16:00 +5°C° 0 mm 1 mps 767 mmHg 80%
    17:00 +4°C° 0 mm 1 mps 767 mmHg 83%
    18:00 +3°C° 0 mm 1 mps 767 mmHg 87%
    19:00 +3°C° 0 mm 1 mps 767 mmHg 87%
    20:00 +3°C° 0 mm 1 mps 767 mmHg 88%
    21:00 +2°C° 0 mm 1 mps 767 mmHg 89%
    22:00 +2°C° 0 mm 1 mps 768 mmHg 89%
    23:00 +2°C° 0 mm 1 mps 768 mmHg 89%

    Day after tomorrow, 15 December, Saturday

    Time Temperature Precipitation Wind Pressure Humidity
    00:00 +2°C° 0 mm 1 mps 768 mmHg 90%
    01:00 +2°C° 0 mm 1 mps 768 mmHg 90%
    02:00 +2°C° 0 mm 1 mps 768 mmHg 90%
    03:00 +2°C° 0 mm 1 mps 769 mmHg 90%
    04:00 +2°C° 0 mm 1 mps 769 mmHg 90%
    05:00 +2°C° 0 mm 1 mps 769 mmHg 90%
    06:00 -1°C° 0 mm 2 mps 769 mmHg 90%
    07:00 +2°C° 0 mm 1 mps 769 mmHg 89%
    08:00 +2°C° 0 mm 1 mps 769 mmHg 88%
    09:00 +2°C° 0 mm 1 mps 769 mmHg 87%
    10:00 +3°C° 0 mm 1 mps 770 mmHg 82%
    11:00 +3°C° 0 mm 2 mps 770 mmHg 77%
    12:00 +4°C° 0 mm 2 mps 770 mmHg 71%
    13:00 +4°C° 0 mm 2 mps 770 mmHg 72%
    14:00 +5°C° 0 mm 1 mps 770 mmHg 72%
    15:00 +5°C° 0 mm 1 mps 770 mmHg 72%
    16:00 +4°C° 0 mm 1 mps 770 mmHg 76%
    17:00 +3°C° 0 mm 1 mps 770 mmHg 80%
    18:00 +2°C° 0 mm 1 mps 770 mmHg 83%
    19:00 +2°C° 0 mm 1 mps 771 mmHg 84%
    20:00 +2°C° 0 mm 1 mps 771 mmHg 85%
    21:00 +1°C° 0 mm 1 mps 771 mmHg 85%
    22:00 +1°C° 0 mm 1 mps 771 mmHg 86%
    23:00 -1°C° 0 mm 2 mps 771 mmHg 87%

    16 December, Sunday

    Time Temperature Precipitation Wind Pressure Humidity
    00:00 -1°C° 0 mm 2 mps 771 mmHg 88%
    01:00 -2°C° 0 mm 2 mps 771 mmHg 87%
    02:00 -2°C° 0 mm 2 mps 771 mmHg 87%
    03:00 -2°C° 0 mm 2 mps 771 mmHg 87%
    04:00 -2°C° 0 mm 2 mps 771 mmHg 87%
    05:00 -2°C° 0 mm 3 mps 771 mmHg 86%
    06:00 -2°C° 0 mm 3 mps 771 mmHg 85%
    07:00 -2°C° 0 mm 3 mps 772 mmHg 84%
    08:00 -2°C° 0 mm 3 mps 772 mmHg 83%
    09:00 -3°C° 0 mm 4 mps 772 mmHg 81%
    10:00 -3°C° 0 mm 4 mps 772 mmHg 77%
    11:00 -2°C° 0 mm 4 mps 771 mmHg 74%
    12:00 -1°C° 0 mm 4 mps 771 mmHg 70%
    13:00 -1°C° 0 mm 4 mps 771 mmHg 70%
    14:00 -1°C° 0 mm 4 mps 770 mmHg 70%
    15:00 -1°C° 0 mm 5 mps 770 mmHg 70%
    16:00 -2°C° 0 mm 5 mps 770 mmHg 74%
    17:00 -2°C° 0 mm 5 mps 770 mmHg 77%
    18:00 -4°C° 0 mm 5 mps 770 mmHg 81%
    19:00 -4°C° 0 mm 5 mps 770 mmHg 81%
    20:00 -4°C° 0 mm 5 mps 770 mmHg 81%
    21:00 -4°C° 0 mm 6 mps 770 mmHg 81%
    22:00 -4°C° 0 mm 6 mps 770 mmHg 81%
    23:00 -5°C° 0 mm 6 mps 770 mmHg 81%

    17 December, Monday

    Time Temperature Precipitation Wind Pressure Humidity
    00:00 -5°C° 0 mm 6 mps 769 mmHg 81%
    01:00 -5°C° 0 mm 6 mps 769 mmHg 81%
    02:00 -5°C° 0 mm 6 mps 769 mmHg 81%
    03:00 -5°C° 0 mm 6 mps 769 mmHg 80%
    04:00 -5°C° 0 mm 6 mps 768 mmHg 80%
    05:00 -5°C° 0 mm 6 mps 768 mmHg 80%
    06:00 -5°C° 0 mm 6 mps 768 mmHg 80%
    07:00 -6°C° 0 mm 7 mps 768 mmHg 80%
    08:00 -6°C° 0 mm 7 mps 768 mmHg 80%
    09:00 -6°C° 0 mm 7 mps 768 mmHg 79%
    10:00 -4°C° 0 mm 7 mps 768 mmHg 76%
    11:00 -3°C° 0 mm 7 mps 767 mmHg 74%
    12:00 -3°C° 0 mm 7 mps 767 mmHg 71%
    13:00 -2°C° 0 mm 7 mps 767 mmHg 71%
    14:00 -2°C° 0 mm 7 mps 766 mmHg 71%
    15:00 -2°C° 0 mm 7 mps 766 mmHg 71%
    16:00 -2°C° 0 mm 7 mps 766 mmHg 73%
    17:00 -3°C° 0 mm 7 mps 766 mmHg 75%
    18:00 -3°C° 0 mm 7 mps 767 mmHg 77%
    19:00 -3°C° 0 mm 7 mps 767 mmHg 78%
    20:00 -3°C° 0 mm 7 mps 767 mmHg 78%
    21:00 -3°C° 0 mm 7 mps 767 mmHg 79%
    22:00 -3°C° 0 mm 7 mps 767 mmHg 80%
    23:00 -3°C° 0 mm 7 mps 767 mmHg 81%

    18 December, Tuesday

    Time Temperature Precipitation Wind Pressure Humidity
    00:00 -3°C° 0 mm 6 mps 767 mmHg 81%
    01:00 -3°C° 0 mm 6 mps 767 mmHg 81%
    02:00 -3°C° 0 mm 6 mps 767 mmHg 82%
    03:00 -3°C° 0 mm 6 mps 767 mmHg 82%
    04:00 -3°C° 0 mm 6 mps 767 mmHg 82%
    05:00 -3°C° 0 mm 7 mps 766 mmHg 83%
    06:00 -3°C° 0 mm 7 mps 766 mmHg 83%
    07:00 -3°C° 0 mm 7 mps 766 mmHg 83%
    08:00 -3°C° 0 mm 7 mps 767 mmHg 83%
    09:00 -3°C° 0 mm 7 mps 767 mmHg 83%
    10:00 -2°C° 0 mm 7 mps 767 mmHg 82%
    11:00 -2°C° 0 mm 7 mps 766 mmHg 81%
    12:00 -2°C° 0 mm 7 mps 766 mmHg 79%
    13:00 -2°C° 0 mm 7 mps 766 mmHg 80%
    14:00 -1°C° 0 mm 6 mps 766 mmHg 80%
    15:00 -1°C° 0 mm 6 mps 766 mmHg 80%
    16:00 -1°C° 0 mm 6 mps 766 mmHg 81%
    17:00 -2°C° 0 mm 6 mps 766 mmHg 82%
    18:00 -2°C° 0 mm 6 mps 766 mmHg 83%
    19:00 -2°C° 0 mm 6 mps 766 mmHg 84%
    20:00 -2°C° 0 mm 7 mps 766 mmHg 84%
    21:00 -2°C° 0 mm 7 mps 766 mmHg 85%
    22:00 -2°C° 0.3 mm 6 mps 766 mmHg 85%
    23:00 -2°C° 0.3 mm 6 mps 766 mmHg 86%
    Show more